Regional Weather Roundup
Issued by NWS

Home | Current Version | Previous Version | Text Only | Print | Product List | Glossary On
Versions: 1 2 3 4 5 6 7 8 9 10 11 12 13 14 15 16 17 18 19 20 21 22 23 24 25 26 27 28 29 30 31 32 33 34 35 36 37 38 39 40 41 42 43 44 45 46 47 48 49 50
000
ASUS43 KMKX 021800
RWRWI

WISCONSIN REGIONAL WEATHER ROUNDUP
NATIONAL WEATHER SERVICE MILWAUKEE/SULLIVAN WI
100 PM CDT SUN AUG 02 2015

NOTE: "FAIR" INDICATES FEW OR NO CLOUDS BELOW 12,000 FEET WITH NO
SIGNIFICANT WEATHER AND/OR OBSTRUCTIONS TO VISIBILITY.

WIZ001-002-006>008-014>016-023>028-021900-
NORTHWEST WISCONSIN

CITY           SKY/WX    TMP DP  RH WIND       PRES   REMARKS
SUPERIOR ARPT  CLOUDY    72  63  71 W9        29.66R
ASHLAND        PTSUNNY   74  61  63 W6        29.63F
6HR MIN TEMP:  65; 6HR MAX TEMP:  75; 6HR PCP:  0.05;

HAYWARD        PTSUNNY   76  60  57 VRB7      29.66R
6HR MIN TEMP:  66; 6HR MAX TEMP:  76; 6HR PCP:  0.14;

SIREN          PTSUNNY   77  58  51 N12       29.67S
CUMBERLAND     CLOUDY    72  64  78 W5        29.66R
RICE LAKE      CLOUDY    73  65  78 W9        29.67R
CHETEK         CLOUDY    74  67  80 W3        29.64R
LADYSMITH      CLOUDY    77  67  70 N6        29.64S
EAU CLAIRE     NOT AVBL
MENOMONIE      MOSUNNY   84  66  55 W15       29.61R HX  86
NEW RICHMOND   CLOUDY    76  65  69 NW16      29.66R
OSCEOLA        CLOUDY    73  67  80 NW9       29.69R
$$

WIZ003>005-009-010-017-018-021900-
NORTH CENTRAL WISCONSIN

CITY           SKY/WX    TMP DP  RH WIND       PRES   REMARKS
MANITOWISH WTR CLOUDY    67  63  86 CALM      29.65R
ARBOR VITAE    CLOUDY    65  63  92 CALM      29.63F
WOODRUFF       CLOUDY    65  63  92 CALM      29.63F
RHINELANDER    CLOUDY    64  60  87 E5        29.63F
6HR MIN TEMP:  62; 6HR MAX TEMP:  71; 6HR PCP:  0.45;

EAGLE RIVER    LGT RAIN  60  59  96 E6        29.62F
LAND O LAKES   CLOUDY    64  63  96 SE3       29.64F
PHILLIPS       CLOUDY    67  62  86 CALM      29.65R
6HR MIN TEMP:  61; 6HR MAX TEMP:  70; 6HR PCP:  0.21;

TOMAHAWK       LGT RAIN  67  61  82 N6G17     29.65S
MEDFORD        CLOUDY    76  68  76 W13       29.63S
MERRILL        NOT AVBL
$$

WIZ029-030-035-036-043>047-021900-
CENTRAL WISCONSIN

CITY           SKY/WX    TMP DP  RH WIND       PRES   REMARKS
WAUSAU         PTSUNNY   84  67  56 NW13      29.59R HX  86
6HR MIN TEMP:  69; 6HR MAX TEMP:  84; 6HR PCP:  0.01;

MOSINEE        MOSUNNY   86  68  54 SW12      29.60F HX  89
MARSHFIELD     PTSUNNY   86  66  51 W20       29.59F HX  88
6HR MIN TEMP:  70; 6HR MAX TEMP:  87;

STEVENS POINT  MOSUNNY   86  65  49 SW14G24   29.57F HX  88
WAUPACA        MOSUNNY   92  65  40 SW14G24   29.58F HX  94
WAUTOMA        NOT AVBL
WISC RAPIDS    MOSUNNY   90  64  42 SW20G26   29.60F HX  91
6HR MIN TEMP:  73; 6HR MAX TEMP:  91;

CAMP DOUGLAS   NOT AVBL
$$

WIZ011>013-019>022-031-037>040-048>050-021900-
NORTHEAST WISCONSIN

CITY           SKY/WX    TMP DP  RH WIND       PRES   REMARKS
ANTIGO         PTSUNNY   76  67  75 W9        29.64R
SHAWANO        CLOUDY    85  69  58 SW7       29.57F HX  89
OCONTO         CLOUDY    78  72  82 NE3       29.59F
STURGEON BAY   CLOUDY    73  66  78 N5        29.63S
6HR MIN TEMP:  72; 6HR MAX TEMP:  79;

GREEN BAY      PTSUNNY   86  71  60 S13G23    29.58F HX  91
6HR MIN TEMP:  71; 6HR MAX TEMP:  86;

MANITOWOC      NOT AVBL
APPLETON       PTSUNNY   86  66  51 SW17G24   29.61F HX  88
CLINTONVILLE   MOSUNNY   88  64  45 SW13G18   29.58F HX  89
OSHKOSH        SUNNY     88  69  53 SW22G29   29.59F HX  92
6HR MIN TEMP:  69; 6HR MAX TEMP:  89;

$$

WIZ032>034-041-042-053>061-021900-
SOUTHWEST WISCONSIN

CITY           SKY/WX    TMP DP  RH WIND       PRES   REMARKS
LA CROSSE      MOSUNNY   90  69  50 SW18G26   29.61F HX  94
6HR MIN TEMP:  74; 6HR MAX TEMP:  90;

SPARTA         MOSUNNY   87  64  45 SW12G22   29.63F HX  88
VIROQUA        MOSUNNY   84  69  59 SW16G23   29.68F HX  88
BOSCOBEL       SUNNY     91  68  46 SW17G30   29.67F HX  95
6HR MIN TEMP:  73; 6HR MAX TEMP:  91;

PRAIRIE DU CHI SUNNY     88  66  48 S14G22    29.69F HX  90
PLATTEVILLE    SUNNY     85  71  62 SW17G24   29.75F HX  91
$$

WIZ056-057-062-063-064-067-068-021900-
SOUTH CENTRAL WISCONSIN

CITY           SKY/WX    TMP DP  RH WIND       PRES   REMARKS
REEDSBURG      SUNNY     87  70  56 SW12      29.66F HX  92
BARABOO/DELLS  SUNNY     87  65  49 SW16G23   29.67F HX  88
LONE ROCK      NOT AVBL
MINERAL POINT  SUNNY     86  66  51 SW17G23   29.74F HX  88
MADISON        MOSUNNY   86  69  56 SW13G20   29.68F HX  90
6HR MIN TEMP:  74; 6HR MAX TEMP:  86;

MIDDLETON      SUNNY     87  66  48 SW18G24   29.70F HX  89
WATERTOWN      SUNNY     85  72  64 SW14G24   29.70F HX  91
MONROE         MOSUNNY   84  66  54 SW14G23   29.76F HX  86
JANESVILLE     SUNNY     90  64  43 W23G29    29.74F HX  91
$$

WIZ051-052-058>065-066-070>072-021900-
SOUTHEAST WISCONSIN

CITY           SKY/WX    TMP DP  RH WIND       PRES   REMARKS
MILWAUKEE      MOSUNNY   90  66  45 SW22G31   29.70F HX  92
6HR MIN TEMP:  74; 6HR MAX TEMP:  90;

WAUKESHA       SUNNY     88  66  48 SW14G29   29.72F HX  90
MILWAUKEE/TIMM SUNNY     88  64  45 W17G31    29.69F HX  89
RACINE         MOSUNNY   91  67  44 SW17G26   29.72F HX  94
6HR MIN TEMP:  74; 6HR MAX TEMP:  91;

BURLINGTON     SUNNY     86  66  49 SW16G23   29.74F HX  88
KENOSHA        MOSUNNY   90  68  48 W22G30    29.73F HX  94
6HR MIN TEMP:  73; 6HR MAX TEMP:  90;

FOND DU LAC    SUNNY     87  70  56 SW16G28   29.62F HX  92
6HR MIN TEMP:  73; 6HR MAX TEMP:  88; 6HR PCP: TRACE;

SHEBOYGAN      MOSUNNY   89  69  51 SW21G30   29.63F HX  93
6HR MIN TEMP:  69; 6HR MAX TEMP:  89; 6HR PCP: TRACE;

WEST BEND      SUNNY     86  64  48 SW16G23   29.68F HX  87
JUNEAU         SUNNY     83  70  64 SW20G25   29.70F HX  87
$$

LSZ147-162-021900-
LAKE SUPERIOR

STATION/POSITION TIME  TEMP    WIND        PRES    WAVE
                       AIR SEA DIR/SP/G            HT/PER
                 (UTC) (F)     (DEG/KT/KT) (MB)    (FT/S)
W MID LAKE BUOY  1650   58 54  310/  4/  4 1001.9R   1/ 3
DEVILS ISLAND    1700   61     280/  7/  9 1002.8R
PORT WING        1740   69     260/  7/ 12 1004.1R
SAXON HARBOR     1700   67                 1003.0R
$$

LMZ867-665-643>646-021900-
LAKE MICHIGAN

STATION/POSITION TIME  TEMP    WIND        PRES    WAVE
                       AIR SEA DIR/SP/G            HT/PER
                 (UTC) (F)     (DEG/KT/KT) (MB)    (FT/S)
CHAMBERS ISLAND  1700   70     320/ 10/ 13 1004.4R
N MID LAKE BUOY  1650   68 69  220/  4/  8 1003.6R   2/ 4
NORTHPORT PIER   1720   69     300/ 10/ 19 1004.1R
SISTER BAY       1545   70     120/ 14/ 19   N/A
ALGOMA LAKESHORE 1712          220/ 13/ 16   N/A
KEWAUNEE LAKESHO 1700   64     180/ 10/ 12 1002.9F
SHEBOYGAN LAKESH 1700   82     230/ 15/ 19 1004.7F
PORT WASHINGTON  1700   87     260/ 12/ 18 1006.1F
ATWATER BUOY     1700   80 56  220/ 17/ 25 1007.6F
MILWAUKEE LAKESH 1700   84     250/ 19/ 26   N/A
KENOSHA   LAKESH 1700   86     240/ 17/ 26 1007.1S
$$

TC  - TEMPERATURE IN CELSIUS
VSB - VISIBILITY IN STATUTE MILES
WCI - WIND CHILL INDEX
HX  - HEAT INDEX




USA.gov is the U.S. government's official web portal to all federal, state and local government web resources and services.